Location: Berville
(49.1893°N, 2.0748°E)
Time: 20:11:58
(UTC+00:00)

FENGYUN 1C DEB - Pass Details

Date: 06 March 2024
Orbit: 768 x 960 km, 99.0° (Epoch: 13 April)

Event Time Altitude Azimuth Distance (km) Brightness Sun altitude
Exits shadow 19:30:14 26° 78° (ENE) 1,770 ? -18.1°
Maximum altitude 19:31:22 28° 59° (ENE) 1,700 ? -18.3°
Drops below altitude 10° 19:36:15 10° 3° (N) 2,629 ? -19.1°
Sets 19:38:57 0° 352° (N) 3,548 ? -19.5°
